Location: Newark
(41.6478°N, 9.0078°E)
Time: 11:36:09
(UTC+00:00)

UWE-3 - Pass Details

Date: 30 January 2020
Orbit: 585 x 682 km, 97.6° (Epoch: 22 February)

Event Time Altitude Azimuth Distance (km) Brightness Sun altitude
Rises 05:17:33 0° 7° (N) 2,896 ? -15.3°
Reaches altitude 10° 05:19:44 10° 4° (N) 2,001 ? -14.9°
Maximum altitude 05:24:01 58° 286° (WNW) 747 ? -14.1°
Drops below altitude 10° 05:28:23 10° 208° (SSW) 2,045 ? -13.3°
Sets 05:30:39 0° 204° (SSW) 2,967 ? -12.9°
